Simultaneous Nadir Overpasses (SNOs) Predictions

Prediction of SNOs between FY3D and METOP-C Satellite Orbit:

Table of predicted SNOs for the next 14.0 days since TLE Epoch: 7/20/2024
Index Date (FY3D) Time (FY3D) Lat,Lon (FY3D) SZA (FY3D ) Date (METOP-C) Time (METOP-C) Lat,Lon (METOP-C) SZA (METOP-C ) Distance(km) Time Diff (sec)
1 07/20/2024 15:57:56 76.34, -60.81 55.81 07/20/2024 15:59:04 76.27, -58.48 55.72 61.86 68
2 07/20/2024 16:48:38 -76.23, 106.90 124.30 07/20/2024 16:49:48 -76.20, 108.57 124.35 44.52 70
3 07/20/2024 17:39:19 75.99, -84.94 55.46 07/20/2024 17:40:32 75.98, -84.82 55.45 3.42 73
4 07/20/2024 18:30:03 -75.98, 82.43 124.55 07/20/2024 18:31:15 -75.95, 82.40 124.58 2.81 72
5 07/20/2024 19:20:49 75.97,-110.22 55.44 07/20/2024 19:21:54 75.97,-110.21 55.45 0.51 65
6 07/20/2024 20:11:33 -75.95, 57.15 124.57 07/20/2024 20:12:36 -75.99, 57.16 124.54 3.99 63
7 07/20/2024 21:02:20 75.98,-135.65 55.48 07/20/2024 21:03:16 75.96,-135.60 55.45 3.32 56
8 07/20/2024 21:53:04 -75.97, 31.72 124.54 07/20/2024 21:53:58 -75.97, 31.77 124.54 1.48 54
9 07/20/2024 22:43:50 75.95,-160.93 55.46 07/20/2024 22:44:38 75.94,-160.99 55.45 2.29 48
10 07/20/2024 23:34:34 -75.94, 6.44 124.55 07/20/2024 23:35:20 -75.96, 6.38 124.54 2.62 46
11 07/21/2024 00:25:21 75.97, 173.64 55.49 07/21/2024 00:25:59 75.97, 173.77 55.49 3.65 38
12 07/21/2024 01:16:05 -75.95, -18.99 124.52 07/21/2024 01:16:42 -75.94, -19.01 124.54 1.55 37
13 07/21/2024 02:06:51 75.94, 148.36 55.47 07/21/2024 02:07:21 75.96, 148.38 55.49 1.75 30
14 07/21/2024 02:57:35 -75.93, -44.27 124.54 07/21/2024 02:58:04 -75.93, -44.40 124.54 3.53 29
15 07/21/2024 03:48:22 75.96, 122.93 55.51 07/21/2024 03:48:43 75.94, 122.99 55.49 2.56 21
16 07/21/2024 04:39:06 -75.94, -69.70 124.51 07/21/2024 04:39:25 -75.96, -69.63 124.49 2.47 19
17 07/21/2024 05:29:52 75.93, 97.65 55.49 07/21/2024 05:30:05 75.93, 97.60 55.49 1.37 13
18 07/21/2024 06:20:36 -75.91, -94.98 124.52 07/21/2024 06:20:47 -75.94, -95.02 124.50 3.42 11
19 07/21/2024 07:11:23 75.95, 72.22 55.52 07/21/2024 07:11:27 75.91, 72.21 55.49 3.87 4
20 07/21/2024 08:02:07 -75.93,-120.41 124.49 07/21/2024 08:02:09 -75.93,-120.41 124.50 0.33 2
21 07/21/2024 08:52:53 75.92, 46.94 55.51 07/21/2024 08:52:48 75.94, 46.97 55.53 2.97 5
22 07/21/2024 09:43:37 -75.90,-145.69 124.51 07/21/2024 09:43:31 -75.91,-145.80 124.50 3.32 6
23 07/21/2024 10:34:24 75.93, 21.50 55.54 07/21/2024 10:34:10 75.93, 21.58 55.53 2.27 14
24 07/21/2024 11:25:08 -75.92,-171.12 124.48 07/21/2024 11:24:53 -75.90,-171.19 124.50 3.00 15
25 07/21/2024 12:15:54 75.91, -3.77 55.52 07/21/2024 12:15:32 75.91, -3.81 55.53 1.22 22
26 07/21/2024 13:06:39 -75.93, 163.44 124.45 07/21/2024 13:06:14 -75.93, 163.57 124.45 3.53 25
27 07/21/2024 13:57:25 75.92, -29.21 55.55 07/21/2024 13:56:54 75.90, -29.20 55.53 2.76 31
28 07/21/2024 14:48:09 -75.91, 138.17 124.46 07/21/2024 14:47:36 -75.91, 138.18 124.45 0.90 33
29 07/21/2024 15:38:55 75.89, -54.48 55.54 07/21/2024 15:38:16 75.88, -54.59 55.53 3.05 39
30 07/21/2024 16:29:40 -75.92, 112.73 124.43 07/21/2024 16:28:58 -75.90, 112.79 124.45 3.17 42
31 07/21/2024 17:20:26 75.91, -79.92 55.57 07/21/2024 17:19:37 75.91, -79.82 55.57 2.59 49
32 07/21/2024 18:11:10 -75.89, 87.45 124.45 07/21/2024 18:10:20 -75.88, 87.40 124.46 1.89 50
33 07/21/2024 19:01:56 75.88,-105.19 55.55 07/21/2024 19:00:59 75.90,-105.21 55.57 1.97 57
34 07/21/2024 19:52:41 -75.91, 62.02 124.41 07/21/2024 19:51:41 -75.91, 62.16 124.41 3.92 60
35 07/21/2024 20:43:27 75.90,-130.63 55.58 07/21/2024 20:42:21 75.88,-130.60 55.57 1.79 66
36 07/21/2024 21:34:11 -75.88, 36.74 124.43 07/21/2024 21:33:03 -75.90, 36.77 124.41 2.08 68
37 07/21/2024 22:24:57 75.87,-155.91 55.57 07/21/2024 22:23:43 75.87,-155.99 55.57 2.38 74
38 07/21/2024 23:15:40 -75.81, 11.62 124.49 07/21/2024 23:14:26 -75.84, 11.23 124.46 11.09 74
39 07/22/2024 00:06:20 75.52, 179.89 55.23 07/22/2024 00:05:12 75.53, 177.57 55.25 64.42 68
40 07/22/2024 00:57:03 -75.46, -12.60 124.83 07/22/2024 00:55:56 -75.45, -15.34 124.82 76.53 67



Historial Predications of SNOs between FY3D and METOP-C
